Weather in Pronin

Russia / Volgograd Oblast     49°12′27″N   42°12′58″E
temp.,
°C
wind,
m/s
gust,
m/s
humid.,
%
clouds,
%
prec.,
mm/h
press.,
hPa
HPBL,
m
18 september, sat
sat1800:00+13ssw374499 0.0 1016151
03:00+13sw374196 0.0 1016247
06:00+12w2245100 0.0 101747
09:00+15ene2239100 0.0 1017254
12:00+18e443388 0.0 1017954
15:00+19ene663399 0.0 10171054
18:00+15e6104399 0.0 1017341
21:00+11e611527 0.0 1018260
19 september, sun
sun1900:00+10e6135561 0.0 1018324
03:00+10e6135660 0.0 1017335
06:00+10ese6145898 0.0 1017302
09:00+13ese71451100 0.0 1016453
12:00+18se91252100 0.1 1015891
15:00+20sse91143100 0.1 10141190
18:00+19se61245100 0.0 1013695
21:00+18sse81445100 0.3 1013999
20 september, mon
mon2000:00+14se71589100 5.1 1012636
03:00+14sse81485100 8.4 1011575
06:00+14sse71288100 1.6 1011466
09:00+18s71082100 1.8 1010793
12:00+18sse797499 0.3 1010974
15:00+22sw585586 3.6 10091335
18:00+20wsw37490 0.0 1009124
21:00+17wsw365847 0.0 1011137
21 september, tue
tue2100:00+16ssw346868 0.1 101292
03:00+14s39831 0.4 1012183
06:00+14ssw378399 0.0 1012239
09:00+16wsw3576100 0.0 1012556
12:00+15sw3569100 0.3 1012635
15:00+15ssw3562100 0.9 1012463
18:00+14ssw3462100 0.0 101274
21:00+13wnw345796 0.0 101261
22 september, wed
wed2200:00+11nw3472100 0.0 101378
03:00+12wnw2574100 0.0 1013191
06:00+11wsw2274100 0.0 101339
09:00+13w566384 0.1 10131155
12:00+13wsw575270 0.1 10141505
15:00+11w675757 0.1 10151137
18:00+10w5657100 0.0 10161215
21:00+9wsw3558100 0.0 1016820